Regional Weather Roundup
Issued by NWS Upton, NY

Current Version | Previous Version | Text Only | Print | Product List | Glossary On
Versions: 1 2 3 4 5 6 7 8 9 10 11 12 13 14 15 16 17 18 19 20 21 22 23 24 25 26 27 28 29 30 31 32 33 34 35 36 37 38 39 40 41 42 43 44 45 46 47 48 49 50
000
ASUS41 KOKX 292204
RWROKX

REGIONAL WEATHER ROUNDUP
NATIONAL WEATHER SERVICE NEW YORK NY
600 PM EDT MON AUG 29 2016

NOTE: "FAIR" INDICATES FEW OR NO CLOUDS BELOW 12,000 FEET WITH NO
SIGNIFICANT WEATHER AND/OR OBSTRUCTIONS TO VISIBILITY.

NYZ071-072-176-178-NJZ106-104-292300-
NEW YORK CITY METRO AREA

CITY           SKY/WX    TMP DP  RH WIND       PRES   REMARKS
Central Park   SUNNY     88  57  34 N6        30.09S
LaGuardia APRT MOSUNNY   89  58  34 N9        30.06R
Kennedy INTL   MOSUNNY   89  59  36 N14G24    30.06S
Newark/Liberty MOSUNNY   89  57  33 NW13G18   30.06S
Bronx Bot Gard   N/A     88  57  35 W5        30.08S
Wall St Helipt CLEAR     91  61  35 NW8       30.07R HX  91
Teterboro      SUNNY     87  55  33 N8        30.05S
$$

NYZ177-179-078>081-292300-
LONG ISLAND NEW YORK

CITY           SKY/WX    TMP DP  RH WIND       PRES   REMARKS
Farmingdale    SUNNY     88  56  33 N10       30.06S
MacArthur/ISP  MOSUNNY   88  57  34 MISG      30.06R
Shirley        SUNNY     87  56  34 N14       30.07R
Riverhead      NOT AVBL
Westhampton    SUNNY     87  53  31 NW14      30.08R
Southampton      N/A     86  63  45 N6        30.02R
Bridgehampton    N/A     82  68  61 CALM      30.05R
East Hampton   FAIR      83  64  52 CALM      30.05R
Montauk          N/A     81  65  58 NW6       30.06R
$$

NYZ052-065-067-292300-
HUDSON VALLEY

CITY           SKY/WX    TMP DP  RH WIND       PRES   REMARKS
White Plains   MOSUNNY   85  58  39 N10       30.08S
Newburgh       MOSUNNY   84  59  42 N14       30.12R
Montgomery     SUNNY     84  60  44 NW9       30.10R
Poughkeepsie   SUNNY     83  56  39 N13       30.08R
Albany         MOSUNNY   81  55  40 NW8       30.11S
$$

NJZ001-105-106-008-010-013-015-019>022-104-292300-
NEW JERSEY

CITY           SKY/WX    TMP DP  RH WIND       PRES   REMARKS
Newark/Liberty MOSUNNY   89  57  33 NW13G18   30.06S
Teterboro      SUNNY     87  55  33 N8        30.05S
Caldwell       SUNNY     86  60  41 VRB6      30.09R
Morristown     MOSUNNY   84  61  45 N8G15     30.09R
Somerville     SUNNY     88  60  38 N8        30.06S
Linden         FAIR      88  56  33 N12       30.09R
Sussex         SUNNY     83  59  44 N6        30.12S
Abdover          N/A     82  60  47 N6        30.12S
Trenton        SUNNY     89  58  34 N9        30.07R
Millville      SUNNY     87  74  64 W7        30.06S HX  95
Atlantic City  MOSUNNY   91  68  46 W6        30.04S HX  95
Wrightstown    SUNNY     89  65  43 N12       30.02S HX  91
Toms River     SUNNY     90  64  42 N8        30.05S HX  91
Belmar         SUNNY     87  68  52 VRB7      30.07R HX  90
$$

PAZ047>061-062-071-292300-
EASTERN PENNSYLVANIA

CITY           SKY/WX    TMP DP  RH WIND       PRES   REMARKS
Philadelphia   MOSUNNY   92  61  35 N10       30.05S HX  92
Allentown      SUNNY     86  60  41 N9        30.11S
Scranton       MOSUNNY   82  59  45 NW12      30.16R
$$

CTZ002-004>006-009-010-012-RIZ004-006-007-MAZ004-011-015-292300-
SOUTHERN NEW ENGLAND
 IN CT

CITY           SKY/WX    TMP DP  RH WIND       PRES   REMARKS
Bradley INTL   MOSUNNY   84  55  36 N12       30.08R
Hartford       SUNNY     87  56  34 N13       30.06R
Danbury        SUNNY     82  57  42 N7        30.10R
Wtrbury/Oxford MOSUNNY   81  54  39 N9        30.13S
Bridgeport     SUNNY     89  54  30 N12       30.06R
Meriden        SUNNY     88  56  33 NW9       30.07R
New Haven      SUNNY     86  54  33 NW12G18   30.06S
Chester        FAIR      84  57  39 N10       30.08R
Groton         SUNNY     88  57  34 NW14      30.04R
Wilimantic     SUNNY     84  57  39 N8        30.08R

 IN RI

CITY           SKY/WX    TMP DP  RH WIND       PRES   REMARKS
Providence     MOSUNNY   86  55  34 NW10      30.05R
Block Island   SUNNY     81  66  60 NW6       30.05R
Westerly       SUNNY     87  53  31 N14G20    30.05R
 IN MA

CITY           SKY/WX    TMP DP  RH WIND       PRES   REMARKS
Boston         NOT AVBL
Worcester      SUNNY     78  53  41 N9        30.12R
Westfield      SUNNY     83  54  36 N13       30.09R
Provincetown   SUNNY     75  62  64 N10       30.05R
Nantucket      SUNNY     80  61  52 NE14      30.04R
$$

ANZ330-335-338-340-345-350-353-355-292300-
COASTAL MARINE OBSERVATIONS


STATION/POSITION TIME  SKY/WX   TEMP    WIND        PRES    VSBY  WAVE
                                AIR SEA DIR/SP/G                  HT/PER
                 (UTC)          (F)     (DEG/KT/KT) (MB)    (MI)  (FT/S)
NY HARB ENTRANCE 2050            80 79  230/  6/  8 1017.3          3/13
20S FIRE ISLAND  2050            78 76  220/  4/  4 1017.0          3/14
GREAT SOUTH BAY  2100            85 81  360/ 10/ 16   N/A
23 SSW MONTAUK P 2050            77 76  250/ 10/ 12 1017.6          3/13
15 E BARNEGAT LI 2100               78                N/A           3/13
HUDSON CANYON    2050            79 79              1017.8          4/13
KINGS POINT      2100            86 79              1017.7
EXECUTION ROCKS  2100            84     330/  8/ 14   N/A
CENTRAL LI SOUND 2100            82 77  310/ 10/ 12   N/A           1/ 2
EASTERN LI SOUND 2100            85 71  330/ 10/ 14   N/A
ROBBINS REEF     2100            87     340/ 11/ 15 1017.2
$$


>>>>>>>>>>>>>>>>>>>>>>>>>>>> KEY <<<<<<<<<<<<<<<<<<<<<<<<<<<
>                                                          <
>     SKY/WX - Sky Condition/Present Weather               <
>     TMP    - Temperature in Fahrenheit                   <
>     DP     - Dew Point in Fahrenheit                     <
>     RH     - Relative Humidity in Percent                <
>     WIND   - Direction (from) and Speed in MPH           <
>     PRES   - Mean Sea Level Pressure (inches of Hg)      <
>     WCI    - Wind Chill Index                            <
>     VSB    - VISIBILITY IN MILES                         <
>     HX     - HEAT INDEX                                  <
>     TC     - TEMPERATURE IN CELSIUS                      <
>     VRB    - VARIABLE WIND DIRECTION                     <
>                                                          <
>>>>>>>>>>>>>>>>>>>>>>>>>>>> KEY <<<<<<<<<<<<<<<<<<<<<<<<<<<



USA.gov is the U.S. government's official web portal to all federal, state and local government web resources and services.